This is the latest recevied weather packets stored in our database for station/object SR9WXJ. If no packets are shown the sender has not sent any weather packets the latest 10 day(s).
| Time | Temp. | Humidity | Pressure | Rain* | Wind** | Luminosity | Snow |
|---|---|---|---|---|---|---|---|
| 1787364967 | 16.11° C | 100% | 794.9 hPa | - | - | - | - |
| 1787364658 | 16.67° C | 100% | 794.9 hPa | - | - | - | - |
| 1787364344 | 17.22° C | 100% | 794.2 hPa | - | - | - | - |
| 1787364043 | 17.78° C | 100% | 794.2 hPa | - | - | - | - |
| 1787363732 | 18.33° C | 100% | 794.2 hPa | - | - | - | - |
| 1787363420 | 18.33° C | 100% | 790.7 hPa | - | - | - | - |
| 1787363110 | 18.33° C | 100% | 790.7 hPa | - | - | - | - |
| 1787362498 | 18.33° C | 100% | 787 hPa | - | - | - | - |
| 1787362187 | 18.33° C | 100% | 783.9 hPa | - | - | - | - |
| 1787361877 | 18.33° C | 100% | 783.9 hPa | - | - | - | - |
| 1787361565 | 18.89° C | 100% | 781.7 hPa | - | - | - | - |
| 1787361267 | 18.89° C | 100% | 781.7 hPa | - | - | - | - |
| 1787360953 | 18.89° C | 100% | 781.7 hPa | - | - | - | - |
| 1787360642 | 19.44° C | 100% | 781.7 hPa | - | - | - | - |
| 1787360331 | 19.44° C | 100% | 781.7 hPa | - | - | - | - |
| 1787360020 | 19.44° C | 100% | 781.7 hPa | - | - | - | - |
| 1787359237 | 19.44° C | 100% | 781.7 hPa | - | - | - | - |
| 1787358506 | 20° C | 100% | 781.7 hPa | - | - | - | - |
| 1787357773 | 20.56° C | 100% | 781.7 hPa | - | - | - | - |
| 1787357040 | 21.67° C | 100% | 781.7 hPa | - | - | - | - |
* Rain since midnight (hover to see other rain measurements)
** Current wind speed in m/s (hover to see current wind gust speed)